Tracking 31027 objects as of 19-Jul-2025
HD Live streaming from Space Station
objects crossing your sky now

STARLINK-3608

Track STARLINK-3608 now!
10-day predictions
STARLINK-3608 is classified as:


NORAD ID: 51776
Int'l Code: 2022-017J
Perigee: 546.1 km
Apogee: 547.7 km
Inclination: 53.2 °
Period: 95.4 minutes
Semi major axis: 6917 km
RCS: Unknown
Launch date: February 25, 2022
Source: United States (US)
Launch site: AIR FORCE WESTERN TEST RANGE (AFWTR)
Your satellite tracking list
FREGAT DEB
Track 1 satellite(s)




NASA's NSSDC Master Catalog

Two Line Element Set (TLE):
1 51776U 22017J   25199.56523760  .00000616  00000-0  56811-4 0  9996
2 51776  53.2173 310.1476 0001213  89.7055 270.4076 15.08836550187229
Source of the keplerian elements: AFSPC